CW8386 Weather Reports


time (UTC)temp
C
wind
direction
speed
KPH
gust
KPH
rain 1hr
cm
rain 24hr
cm
rain mn
cm
humidity
%
barometer
mb
20260504190031 15 360 0.0 0.0 0.00 0.00 0.00 37 1012.4
20260504185554 15 360 0.0 0.0 0.00 0.00 0.00 37 1012.5
20260504185040 15 360 0.0 9.7 0.00 0.00 0.00 38 1012.6
20260504184522 14 360 0.0 19.3 0.00 0.00 0.00 38 1012.7
20260504184025 14 360 14.5 24.1 0.00 0.00 0.00 39 1012.8
20260504183546 13 360 0.0 24.1 0.00 0.00 0.00 39 1012.9
20260504183028 14 360 8.0 20.9 0.00 0.00 0.00 38 1012.9
20260504182551 13 360 0.0 14.5 0.00 0.00 0.00 38 1012.9
20260504182032 13 360 1.6 14.5 0.00 0.00 0.00 39 1013.0
20260504181551 14 360 8.0 14.5 0.00 0.00 0.00 39 1013.2
20260504181114 13 360 1.6 19.3 0.00 0.00 0.00 39 1013.2
20260504180533 13 360 12.9 19.3 0.00 0.00 0.00 39 1013.3
20260504175552 13 360 0.0 17.7 0.00 0.00 0.00 39 1013.4
20260504175054 13 360 3.2 17.7 0.00 0.00 0.00 39 1013.5
20260504174557 13 360 3.2 14.5 0.00 0.00 0.00 39 1013.4
20260504174039 13 360 1.6 17.7 0.00 0.00 0.00 39 1013.4
20260504173601 13 360 8.0 17.7 0.00 0.00 0.00 39 1013.2
20260504173103 13 360 1.6 6.4 0.00 0.00 0.00 39 1013.2
20260504172544 13 360 0.0 8.0 0.00 0.00 0.00 40 1013.2
20260504172026 13 360 0.0 9.7 0.00 0.00 0.00 40 1013.2
20260504171549 13 360 1.6 8.0 0.00 0.00 0.00 40 1013.3
20260504171052 13 360 3.2 9.7 0.00 0.00 0.00 40 1013.3
20260504170532 12 360 1.6 14.5 0.00 0.00 0.00 41 1013.3
20260504150601 11 360 16.1 33.8 0.00 0.00 0.00 42 1013.6
20260504150123 11 360 19.3 30.6 0.00 0.00 0.00 42 1013.6
20260504141024 11 360 19.3 35.4 0.00 0.00 0.00 45 1012.9
20260504140545 11 360 17.7 37.0 0.00 0.00 0.00 45 1012.8
20260504130614 5 360 0.0 0.0 0.00 0.00 0.00 63 1011.3
20260504110544 3 360 0.0 0.0 0.00 0.00 0.00 66 1009.1
20260504100545 4 360 8.0 9.7 0.00 0.00 0.00 64 1009.0
20260504081536 7 360 0.0 3.2 0.00 0.00 0.00 58 1009.0
20260504080555 7 360 0.0 11.3 0.00 0.00 0.00 58 1009.1
20260504060116 8 360 3.2 6.4 0.00 0.00 0.00 53 1009.0
20260504050532 9 360 8.0 9.7 0.00 0.00 0.00 50 1009.4
20260504045556 10 360 6.4 8.0 0.00 0.00 0.00 49 1009.3
20260504045058 10 360 3.2 14.5 0.00 0.00 0.00 48 1009.4
20260504044620 10 360 6.4 14.5 0.00 0.00 0.00 48 1009.4
20260504043616 11 360 8.0 9.7 0.00 0.00 0.00 45 1009.5
20260504043022 12 360 4.8 8.0 0.00 0.00 0.00 44 1009.4
20260504042545 12 360 1.6 9.7 0.00 0.00 0.00 44 1009.4
20260504042045 12 360 4.8 9.7 0.00 0.00 0.00 44 1009.5
20260504041023 12 360 0.0 0.0 0.00 0.00 0.00 43 1009.4
20260504040544 12 360 0.0 0.0 0.00 0.00 0.00 43 1009.4
20260504040031 12 360 0.0 0.0 0.00 0.00 0.00 43 1009.3
20260504035554 12 360 0.0 0.0 0.00 0.00 0.00 43 1009.3
20260504035035 12 360 0.0 0.0 0.00 0.00 0.00 42 1009.3
20260504034618 12 360 0.0 0.0 0.00 0.00 0.00 42 1009.3
20260504034038 13 360 0.0 0.0 0.00 0.00 0.00 41 1009.2
20260504033539 12 360 0.0 0.0 0.00 0.00 0.00 42 1009.2
20260504033041 12 360 0.0 0.0 0.00 0.00 0.00 42 1009.2
20260504032524 12 360 0.0 1.6 0.00 0.00 0.00 43 1009.1
20260504032046 12 360 0.0 6.4 0.00 0.00 0.00 43 1009.0
20260504031528 12 360 0.0 6.4 0.00 0.00 0.00 42 1009.0
20260504031030 12 360 3.2 4.8 0.00 0.00 0.00 42 1009.8
20260504030613 12 360 1.6 6.4 0.00 0.00 0.00 42 1009.8
20260504030054 12 360 4.8 9.7 0.00 0.00 0.00 42 1009.7
20260504025556 12 360 3.2 11.3 0.00 0.00 0.00 41 1009.6
20260504025058 13 360 8.0 11.3 0.00 0.00 0.00 41 1009.6
20260504024540 13 360 4.8 8.0 0.00 0.00 0.00 40 1009.5
20260504024123 13 360 4.8 9.7 0.00 0.00 0.00 40 1009.5
20260504023523 13 360 8.0 9.7 0.00 0.00 0.00 40 1009.5
20260504023026 14 360 0.0 1.6 0.00 0.00 0.00 39 1009.4
20260504022529 15 360 0.0 1.6 0.00 0.00 0.00 37 1009.3
20260504022112 16 360 0.0 0.0 0.00 0.00 0.00 35 1009.3
20260504021533 17 360 0.0 0.0 0.00 0.00 0.00 34 1009.3
20260504021035 18 360 0.0 0.0 0.00 0.00 0.00 32 1009.3
20260504020536 19 360 0.0 0.0 0.00 0.00 0.00 31 1009.3
20260504020022 21 360 0.0 0.0 0.00 0.00 0.00 28 1009.3
20260504015526 21 360 0.0 0.0 0.00 0.00 0.00 28 1009.4
20260504014527 21 360 0.0 0.0 0.00 0.00 0.00 27 1009.4
20260504014030 21 360 0.0 0.0 0.00 0.00 0.00 27 1009.5
20260504013611 21 360 0.0 0.0 0.00 0.00 0.00 27 1009.4
20260504013113 21 360 0.0 0.0 0.00 0.00 0.00 27 1009.5
20260504012532 21 360 0.0 1.6 0.00 0.00 0.00 27 1009.6
20260504012036 21 360 0.0 1.6 0.00 0.00 0.00 27 1009.5
20260504011618 21 360 0.0 0.0 0.00 0.00 0.00 27 1009.6
20260504011038 21 360 0.0 0.0 0.00 0.00 0.00 27 1009.6
20260504010540 21 360 0.0 4.8 0.00 0.00 0.00 27 1009.7
20260504010022 21 360 0.0 8.0 0.00 0.00 0.00 27 1009.7
20260504005545 21 360 3.2 11.3 0.00 0.00 0.00 27 1009.7
20260504005048 21 360 0.0 11.3 0.00 0.00 0.00 27 1009.7
20260504004530 21 360 0.0 8.0 0.00 0.00 0.00 27 1009.7
20260504004034 22 360 0.0 8.0 0.00 0.00 0.00 27 1009.7
20260504003536 21 360 1.6 6.4 0.00 0.00 0.00 27 1009.8
20260504003039 21 360 0.0 6.4 0.00 0.00 0.00 27 1009.9
20260504002622 21 360 0.0 17.7 0.00 0.00 0.00 27 1009.9
20260504002021 21 360 11.3 19.3 0.00 0.00 0.00 27 1010.0
20260504001604 22 360 3.2 19.3 0.00 0.00 0.00 27 1010.0
20260504001025 22 360 8.0 16.1 0.00 0.00 0.00 27 1010.1
20260504000527 22 360 0.0 14.5 0.00 0.00 0.00 26 1010.0
20260504000050 22 360 0.0 16.1 0.00 0.00 0.00 26 1010.1
20260503235531 22 360 1.6 19.3 0.00 0.00 0.00 26 1010.1
20260503235038 22 360 3.2 19.3 0.00 0.00 0.00 26 1010.1
20260503234600 22 360 3.2 16.1 0.00 0.00 0.00 25 1010.1
20260503234102 22 360 0.0 14.5 0.00 0.00 0.00 26 1010.1
20260503233619 22 360 8.0 14.5 0.00 0.00 0.00 26 1010.2
20260503233024 22 360 3.2 11.3 0.00 0.00 0.00 26 1010.2
20260503232606 22 360 0.0 0.0 0.00 0.00 0.00 25 1010.3
20260503232123 23 360 0.0 0.0 0.00 0.00 0.00 25 1010.4
20260503231542 23 360 0.0 0.0 0.00 0.00 0.00 25 1010.4
20260503231029 22 360 0.0 0.0 0.00 0.00 0.00 25 1010.5
20260503230551 22 360 0.0 1.6 0.00 0.00 0.00 26 1010.5
20260503230053 23 360 0.0 6.4 0.00 0.00 0.00 25 1010.5
20260503225535 23 360 0.0 8.0 0.00 0.00 0.00 25 1010.6
20260503225037 23 360 1.6 19.3 0.00 0.00 0.00 25 1010.6
20260503224539 22 360 4.8 19.3 0.00 0.00 0.00 26 1010.6
20260503224101 22 360 4.8 19.3 0.00 0.00 0.00 26 1010.6
20260503223522 22 360 0.0 19.3 0.00 0.00 0.00 26 1010.7
20260503223105 22 360 11.3 22.5 0.00 0.00 0.00 26 1010.8
20260503222545 22 360 0.0 22.5 0.00 0.00 0.00 26 1010.9
20260503222046 22 360 0.0 16.1 0.00 0.00 0.00 26 1010.9
20260503221527 22 360 0.0 17.7 0.00 0.00 0.00 26 1011.0
20260503221111 22 360 12.9 17.7 0.00 0.00 0.00 26 1011.0
20260503220550 22 360 0.0 22.5 0.00 0.00 0.00 26 1011.0
20260503220031 22 360 14.5 22.5 0.00 0.00 0.00 26 1011.0
20260503215534 22 360 0.0 11.3 0.00 0.00 0.00 26 1011.2
20260503214536 22 360 0.0 1.6 0.00 0.00 0.00 26 1011.4
20260503214039 22 360 0.0 0.0 0.00 0.00 0.00 26 1011.4
20260503213540 22 360 0.0 0.0 0.00 0.00 0.00 26 1011.5
20260503213043 21 360 0.0 0.0 0.00 0.00 0.00 26 1011.6
20260503212525 22 360 0.0 4.8 0.00 0.00 0.00 25 1011.7
20260503212027 22 360 0.0 17.7 0.00 0.00 0.00 25 1011.8
20260503211530 22 360 4.8 17.7 0.00 0.00 0.00 26 1011.9
20260503211053 22 360 0.0 14.5 0.00 0.00 0.00 26 1012.0
20260503210534 21 360 0.0 6.4 0.00 0.00 0.00 26 1011.9
20260503205537 22 360 1.6 16.1 0.00 0.00 0.00 26 1012.1
20260503205024 21 360 0.0 16.1 0.00 0.00 0.00 27 1012.1
20260503204526 21 360 4.8 24.1 0.00 0.00 0.00 26 1012.3
20260503204030 21 360 4.8 24.1 0.00 0.00 0.00 26 1012.4
20260503203532 21 360 0.0 8.0 0.00 0.00 0.00 26 1012.3
20260503203055 21 360 0.0 8.0 0.00 0.00 0.00 27 1012.5
20260503202616 21 360 0.0 3.2 0.00 0.00 0.00 26 1012.6
20260503202037 21 360 0.0 14.5 0.00 0.00 0.00 27 1012.7
20260503201619 20 360 0.0 14.5 0.00 0.00 0.00 27 1012.8
20260503201040 21 360 8.0 11.3 0.00 0.00 0.00 27 1012.8
20260503200602 20 360 1.6 9.7 0.00 0.00 0.00 27 1012.8
20260503200044 21 360 0.0 19.3 0.00 0.00 0.00 26 1012.9
20260503195525 21 360 4.8 19.3 0.00 0.00 0.00 26 1013.0
20260503195028 21 360 8.0 19.3 0.00 0.00 0.00 27 1013.1
20260503194530 21 360 0.0 24.1 0.00 0.00 0.00 27 1013.1
20260503194034 21 360 4.8 24.1 0.00 0.00 0.00 28 1013.2
20260503193536 21 360 0.0 17.7 0.00 0.00 0.00 26 1013.3
20260503193059 20 360 6.4 19.3 0.00 0.00 0.00 27 1013.4
20260503192541 20 360 8.0 19.3 0.00 0.00 0.00 27 1013.4
20260503192023 20 360 3.2 16.1 0.00 0.00 0.00 26 1013.5
20260503191529 20 360 3.2 14.5 0.00 0.00 0.00 26 1013.6
20260503191108 20 360 4.8 16.1 0.00 0.00 0.00 25 1013.7
20260503190608 20 360 4.8 16.1 0.00 0.00 0.00 26 1013.7